无法解析的APRS数据包 | APRS地图 | APRS.TV

无法解析的APRS数据包    
台站 时间 原始数据包
BI7MYK-10 2022-08-17 19:06:33.41 BI7MYK-10>AP-DIY,WIDE1-1,WIDE2-1,qAS,BD7OEJ-9:!2309.47N\11332.25EaData Testing: B1[13.0V] B2[15.0V] B3[17.0V]
BI7MYK-10 2022-08-17 19:06:17.555 BI7MYK-10>AP-DIY,WIDE1-1,WIDE2-1,qAS,BD7OEJ-9:!2309.47N\11332.25EaData Testing: B1[12.9V] B2[14.9V] B3[17.1V]
BI7MYK-10 2022-08-17 19:05:45.063 BI7MYK-10>AP-DIY,WIDE1-1,WIDE2-1,qAS,BD7OEJ-9:!2309.40N\11332.25EaData Testing: B1[12.7V] B2[14.7V] B3[17.3V]
E23XBQ-9 2022-08-17 19:05:28.82 E23XBQ-9>AESPT4,WIDE1-1,qAR,E22ZMG-4:!18�rʂr*٢z�z����Eɥ�"�����ӫLM��j���64kmh
BI7MYK-10 2022-08-17 19:05:28.759 BI7MYK-10>AP-DIY,WIDE1-1,WIDE2-1,qAS,BD7OEJ-9:!2309.37N\11332.26EaData Testing: B1[12.6V] B2[14.6V] B3[17.4V]
DU6BCV 2022-08-17 19:05:17.055 DU6BCV>BEACON,qAR,DU6DKL-6:Hello de Ronnie, PK10lq, Bacolod, Philippines
BI7MYK-10 2022-08-17 19:05:12.801 BI7MYK-10>AP-DIY,WIDE1-1,WIDE2-1,qAS,BD7OEJ-9:!2309.36N\11332.30EaData Testing: B1[12.5V] B2[14.5V] B3[17.5V]
BI7MYK-10 2022-08-17 19:04:56.318 BI7MYK-10>AP-DIY,WIDE1-1,WIDE2-1,qAS,BD7OEJ-9:!2309.37N\11332.35EaData Testing: B1[12.4V] B2[14.4V] B3[17.6V]
JA6IJW-9 2022-08-17 19:04:54.871 JA6IJW-9>S3SPP2,JG6YDA-4*,qAR,JH6EOS-10:4P
DF2KO-1 2022-08-17 19:04:33.973 DF2KO-1>APVRT7,TCPIP*,qAC,T2IRELAND:!5053.74N/0654.44ErPHG1010APRS IGATE AVRT7 http://www.y027.com By AVRT7
BI7MYK-10 2022-08-17 19:04:24.313 BI7MYK-10>AP-DIY,WIDE1-1,WIDE2-1,qAS,BD7OEJ-9:!2309.39N\11332.36EaData Testing: B1[12.2V] B2[14.2V] B3[17.8V]
BI7MYK-10 2022-08-17 19:04:07.758 BI7MYK-10>AP-DIY,WIDE1-1,WIDE2-1,qAS,BD7OEJ-9:!2309.39N\11332.36EaData Testing: B1[12.1V] B2[14.1V] B3[17.9V]
E23XBQ-9 2022-08-17 19:04:03.264 E23XBQ-9>AESPT4,WIDE1-1,qAR,E22ZMG-3:!1850.78�9�.ٺz)&H
9M2RKL-3 2022-08-17 19:03:59.547 9M2RKL-3>BEACON,qAR,9W4GRV-1:BTEXT =0310.65N/10136.72E#9M2RKK-3 UHF KL Digi/BBS
BI7MYK-10 2022-08-17 19:03:51.521 BI7MYK-10>AP-DIY,WIDE1-1,WIDE2-1,qAS,BD7OEJ-9:!2309.39N\11332.36EaData Testing: B1[12.0V] B2[14.0V] B3[18.0V]
HS4TGK-10 2022-08-17 19:03:45.261 HS4TGK-10>APNN08,WIDE1-1,qAR,HS5SQI-3:
BI7MYK-10 2022-08-17 19:03:35.347 BI7MYK-10>AP-DIY,WIDE1-1,WIDE2-1,qAS,BD7OEJ-9:!2309.39N\11332.36EaData Testing: B1[11.9V] B2[13.9V] B3[18.1V]
BI7MYK-10 2022-08-17 19:03:19.181 BI7MYK-10>AP-DIY,WIDE1-1,WIDE2-1,qAS,BD7OEJ-9:!2309.39N\11332.36EaData Testing: B1[11.8V] B2[13.8V] B3[18.2V]
DF2KO-1 2022-08-17 19:03:03.933 DF2KO-1>APVRT7,TCPIP*,qAC,T2IRELAND:!5053.74N/0654.44ErPHG1010APRS IGATE AVRT7 http://www.y027.com By AVRT7
BI7MYK-10 2022-08-17 19:03:03.023 BI7MYK-10>AP-DIY,WIDE1-1,WIDE2-1,qAS,BD7OEJ-9:!2309.39N\11332.36EaData Testing: B1[11.7V] B2[13.7V] B3[18.3V]
BI7MYK-10 2022-08-17 19:02:46.753 BI7MYK-10>AP-DIY,WIDE1-1,WIDE2-1,qAS,BD7OEJ-9:!2309.39N\11332.36EaData Testing: B1[11.6V] B2[13.6V] B3[18.4V]
JA2YQR 2022-08-17 19:02:37.987 JA2YQR>APTT4,JF2ZGN-3*,WIDE2-1,qAR,JA6NGD-1:IZU-ITO NAGISA MUSEN CLUB 13.6V42C
JJ6MXA-9 2022-08-17 19:02:31.85 JJ6MXA-9>S3SPS1,JG6YDA-4*,qAR,JH6EOS-10:4P
BI7MYK-10 2022-08-17 19:02:30.893 BI7MYK-10>AP-DIY,WIDE1-1,WIDE2-1,qAS,BD7OEJ-9:!2309.39N\11332.36EaData Testing: B1[11.5V] B2[13.5V] B3[18.5V]
BI7MYK-10 2022-08-17 19:02:14.375 BI7MYK-10>AP-DIY,WIDE1-1,WIDE2-1,qAS,BD7OEJ-9:!2309.39N\11332.36EaData Testing: B1[11.4V] B2[13.4V] B3[18.6V]
BG7YID-10 2022-08-17 19:02:07.449 BG7YID-10>APLM2U,TCPIP*,qAC,T2FUKUOKA:!1815.20N/10888.80E&APRSCN LM2U 4.30V
BG7YID-10 2022-08-17 19:02:01.515 BG7YID-10>APLM2U,TCPIP*,qAC,T2FUKUOKA:!1815.20N/10888.80E&APRSCN WIFI 4.30V
BI7MYK-10 2022-08-17 19:01:59.306 BI7MYK-10>AP-DIY,WIDE1-1,WIDE2-1,qAS,BD7OEJ-9:!2309.39N\11332.36EaData Testing: B1[11.3V] B2[13.3V] B3[18.7V]
DF2KO-1 2022-08-17 19:01:54.741 DF2KO-1>APVRT7,TCPIP*,qAC,T2IRELAND:!5053.74N/0654.44ErPHG1010APRS IGATE AVRT7 http://www.y027.com By AVRT7
BI7MYK-10 2022-08-17 19:01:42.603 BI7MYK-10>AP-DIY,WIDE1-1,WIDE2-1,qAS,BD7OEJ-9:!2309.39N\11332.36EaData Testing: B1[11.2V] B2[13.2V] B3[18.8V]
HS2AAJ-10 2022-08-17 19:01:32.178 HS2AAJ-10>APOTC1,WIDE1-1,qAR,HS5SQI-3:`mZBl#RP\"4!}NapaSamphan 144.575MHz [Indy noTNC] SAT:11 BATT:13.15V. TopSpeed:118km./hr�
BI7MYK-10 2022-08-17 19:01:26.625 BI7MYK-10>AP-DIY,WIDE1-1,WIDE2-1,qAS,BD7OEJ-9:!2309.39N\11332.36EaData Testing: B1[11.1V] B2[13.1V] B3[18.9V]
BI7MYK-10 2022-08-17 19:01:16.312 BI7MYK-10>AP-DIY,WIDE1-1,WIDE2-1,qAS,BD7OEJ-9:!2309.39N\11332.36EaData Testing: B1[11.0V] B2[13.0V] B3[19.0V]
DF2KO-1 2022-08-17 19:01:03.678 DF2KO-1>APVRT7,TCPIP*,qAC,T2IRELAND:!5053.74N/0654.44ErPHG1010APRS IGATE AVRT7 http://www.y027.com By AVRT7
JF6YVG-4 2022-08-17 19:00:59.978 JF6YVG-4>ID,qAR,JG6YIN-15:JF6YVG/R
BI7MYK-10 2022-08-17 19:00:53.688 BI7MYK-10>AP-DIY,WIDE1-1,WIDE2-1,qAS,BD7OEJ-9:!2309.39N\11332.36EaData Testing: B1[10.9V] B2[12.9V] B3[19.1V]
BI7MYK-10 2022-08-17 19:00:21.076 BI7MYK-10>AP-DIY,WIDE1-1,WIDE2-1,qAS,BD7OEJ-9:!2309.39N\11332.36EaData Testing: B1[10.7V] B2[12.7V] B3[19.3V]
BI7MYK-10 2022-08-17 19:00:04.887 BI7MYK-10>AP-DIY,WIDE1-1,WIDE2-1,qAS,BD7OEJ-9:!2309.39N\11332.36EaData Testing: B1[10.6V] B2[12.6V] B3[19.4V]
OZ4FTP-13 2022-08-17 19:00:03.043 OZ4FTP-13>APVR30,TCPIP*,qAC,T2DENMARK:;IRLP-5116*171100z5638.00NI0958.00E0433500s IDLE
HS3MQX-1 2022-08-17 19:00:02.868 HS3MQX-1>APESPG,TCPIP*,qAC,T2THAI:T#026,13,0,0,-84,19200
BI7MYK-10 2022-08-17 18:59:48.656 BI7MYK-10>AP-DIY,WIDE1-1,WIDE2-1,qAS,BD7OEJ-9:!2309.39N\11332.36EaData Testing: B1[10.5V] B2[12.5V] B3[19.5V]
HS6KLJ-1 2022-08-17 18:59:48.53 HS6KLJ-1>APRX20,TCPIP*,qAC,T2THAI:http://hs6klj.dyndns.org:88/supermon/link.php?nodes=55137
BI7MYK-10 2022-08-17 18:59:32.732 BI7MYK-10>AP-DIY,WIDE1-1,WIDE2-1,qAS,BD7OEJ-9:!2309.39N\11332.36EaData Testing: B1[10.4V] B2[12.4V] B3[19.6V]
JR5YBZ-3 2022-08-17 18:59:20.545 JR5YBZ-3>UIDIGI,qAR,JE4YOO-10:UIDIGI 1.9
BI7MYK-10 2022-08-17 18:59:16.492 BI7MYK-10>AP-DIY,WIDE1-1,WIDE2-1,qAS,BD7OEJ-9:!2309.39N\11332.36EaData Testing: B1[10.3V] B2[12.3V] B3[19.7V]
VU3HGG-13 2022-08-17 18:59:11.355 VU3HGG-13>APRS,TCPIP*,qAC,T2HAKATA:T#857,47
BI7MYK-10 2022-08-17 18:59:00.098 BI7MYK-10>AP-DIY,WIDE1-1,WIDE2-1,qAS,BD7OEJ-9:!2309.39N\11332.36EaData Testing: B1[10.2V] B2[12.2V] B3[19.8V]
BI7MYK-10 2022-08-17 18:58:43.957 BI7MYK-10>AP-DIY,WIDE1-1,WIDE2-1,qAS,BD7OEJ-9:!2309.40N\11332.36EaData Testing: B1[10.1V] B2[12.1V] B3[19.9V]
E23XBQ-9 2022-08-17 18:58:38.226 E23XBQ-9>AESPT4,WIDE1-1,qAR,E23XBQ-1:!18�rʂ��L�P00�E-WC:�����LM'�j���64kmh
E23XBQ-9 2022-08-17 18:58:38.152 E23XBQ-9>AESPT4,WIDE1-1,qAR,E24CR-1:!1�� '�� �&MQ�ZWC:�8�DX:�E���҂�j���64kmh
BI7MYK-10 2022-08-17 18:58:27.732 BI7MYK-10>AP-DIY,WIDE1-1,WIDE2-1,qAS,BD7OEJ-9:!2309.39N\11332.34EaData Testing: B1[10.0V] B2[12.0V] B3[20.0V]
-秒刷新一次页面数据